DW8248 Weather Reports


Display with metric or nautical units.
time (UTC)temp
F
wind
direction
speed
MPH
gust
MPH
rain 1hr
in
rain 24hr
in
rain mn
in
humidity
%
barometer
mb
20220119033447 56 333 4.0 7.0 0.00 0.00 0.00 78 1023.5
20220119032431 56 339 4.0 8.0 0.00 0.00 0.00 77 1023.4
20220119031400 56 332 4.0 8.0 0.00 0.00 0.00 76 1023.5
20220119030407 56 348 5.0 8.0 0.00 0.00 0.00 75 1023.5
20220119025342 56 338 5.0 8.0 0.00 0.00 0.00 75 1023.6
20220119024311 56 343 5.0 8.0 0.00 0.00 0.00 75 1023.6
20220119023327 56 332 5.0 9.0 0.00 0.00 0.00 75 1023.6
20220119022323 55 343 4.0 9.0 0.00 0.00 0.00 75 1023.7
20220119021250 55 346 5.0 8.0 0.00 0.00 0.00 76 1023.6
20220119020223 55 329 4.0 7.0 0.00 0.00 0.00 77 1023.5
20220119015158 56 348 4.0 7.0 0.00 0.00 0.00 77 1023.5
20220119014133 56 342 4.0 7.0 0.00 0.00 0.00 77 1023.4
20220119013132 56 346 3.0 8.0 0.00 0.00 0.00 76 1023.4
20220119012120 56 344 4.0 8.0 0.00 0.00 0.00 75 1023.3
20220119011128 56 341 4.0 7.0 0.00 0.00 0.00 75 1023.3
20220119010102 56 346 4.0 7.0 0.00 0.00 0.00 74 1023.2
20220119005113 56 344 4.0 7.0 0.00 0.00 0.00 74 1023.2
20220119004048 57 342 4.0 7.0 0.00 0.00 0.00 74 1023.2
20220119003024 56 331 4.0 7.0 0.00 0.00 0.00 73 1022.9
20220119002034 56 334 3.0 5.0 0.00 0.00 0.00 73 1022.8
20220119001010 56 347 3.0 7.0 0.00 0.00 0.00 72 1022.7
20220118235938 57 339 2.0 7.0 0.00 0.00 0.00 71 1022.7
20220118234937 57 5 3.0 5.0 0.00 0.00 0.00 71 1022.7
20220118233953 57 351 3.0 5.0 0.00 0.00 0.00 70 1022.6
20220118232941 57 344 3.0 5.0 0.00 0.00 0.00 69 1022.6
20220118231914 58 340 3.0 5.0 0.00 0.00 0.00 68 1022.6
20220118230932 58 342 2.0 4.0 0.00 0.00 0.00 66 1022.5
20220118225942 59 355 2.0 8.0 0.00 0.00 0.00 64 1022.4
20220118225004 60 344 4.0 8.0 0.00 0.00 0.00 63 1022.3
20220118224013 61 347 3.0 7.0 0.00 0.00 0.00 62 1022.2
20220118223028 62 355 3.0 11.0 0.00 0.00 0.00 60 1022.1
20220118222013 62 11 4.0 11.0 0.00 0.00 0.00 59 1022.0
20220118221034 62 355 6.0 10.0 0.00 0.00 0.00 61 1021.9
20220118220039 62 343 5.0 10.0 0.00 0.00 0.00 59 1021.7
20220118215013 63 348 5.0 10.0 0.00 0.00 0.00 60 1021.7
20220118214022 62 9 6.0 11.0 0.00 0.00 0.00 62 1021.7
20220118213041 63 19 6.0 11.0 0.00 0.00 0.00 63 1021.6
20220118212059 63 343 7.0 15.0 0.00 0.00 0.00 63 1021.6
20220118211101 63 9 7.0 15.0 0.00 0.00 0.00 65 1021.5
20220118210030 62 0 7.0 12.0 0.00 0.00 0.00 64 1021.5
20220118205028 63 12 8.0 12.0 0.00 0.00 0.00 66 1021.4
20220118204010 62 332 7.0 12.0 0.00 0.00 0.00 66 1021.3
20220118203025 62 15 7.0 14.0 0.00 0.00 0.00 65 1021.1
20220118202025 62 5 6.0 14.0 0.00 0.00 0.00 65 1021.1
20220118201032 62 22 7.0 13.0 0.00 0.00 0.00 67 1021.2
20220118200024 62 35 6.0 13.0 0.00 0.00 0.00 66 1021.2
20220118195035 62 16 7.0 13.0 0.00 0.00 0.00 64 1021.1
20220118194018 62 333 6.0 11.0 0.00 0.00 0.00 67 1021.2
20220118193040 62 355 6.0 15.0 0.00 0.00 0.00 67 1021.3
20220118192023 62 347 8.0 15.0 0.00 0.00 0.00 67 1021.3
20220118191010 62 0 7.0 13.0 0.00 0.00 0.00 67 1021.5
20220118190017 61 16 8.0 13.0 0.00 0.00 0.00 67 1021.6
20220118185033 61 338 8.0 16.0 0.00 0.00 0.00 68 1021.7
20220118184018 61 0 8.0 16.0 0.00 0.00 0.00 68 1021.8
20220118183015 61 342 8.0 16.0 0.00 0.00 0.00 68 1021.9
20220118182022 60 347 8.0 13.0 0.00 0.00 0.00 68 1022.0
20220118181026 60 347 8.0 14.0 0.00 0.00 0.00 68 1022.2
20220118180000 60 344 8.0 14.0 0.00 0.00 0.00 67 1022.2
20220118175004 60 17 8.0 12.0 0.00 0.00 0.00 67 1022.3
20220118173928 58 325 9.0 12.0 0.00 0.00 0.00 71 1022.5
20220118172939 58 315 10.0 13.0 0.00 0.00 0.00 72 1022.6
20220118171906 57 308 11.0 14.0 0.00 0.00 0.00 71 1022.7
20220118170856 57 317 11.0 14.0 0.00 0.00 0.00 70 1022.8
20220118165827 57 318 10.0 13.0 0.00 0.00 0.00 70 1023.0
20220118164807 57 335 9.0 12.0 0.00 0.00 0.00 68 1023.1
20220118163737 57 321 8.0 12.0 0.00 0.00 0.00 67 1023.2
20220118162758 56 298 8.0 11.0 0.00 0.00 0.00 64 1023.3
20220118161725 56 304 7.0 11.0 0.00 0.00 0.00 61 1023.3
20220118160712 56 308 7.0 11.0 0.00 0.00 0.00 62 1023.4
20220118155705 55 317 8.0 11.0 0.00 0.00 0.00 66 1023.4
20220118154706 54 302 8.0 10.0 0.00 0.00 0.00 67 1023.4
20220118153650 53 309 8.0 10.0 0.00 0.00 0.00 68 1023.4
20220118152621 52 301 8.0 11.0 0.00 0.00 0.00 71 1023.4
20220118151606 51 298 9.0 12.0 0.00 0.00 0.00 72 1023.3
20220118150620 51 304 10.0 13.0 0.00 0.00 0.00 74 1023.3
20220118145559 50 288 11.0 15.0 0.00 0.00 0.00 74 1023.3
20220118144555 50 311 12.0 15.0 0.00 0.00 0.00 75 1023.3
20220118143554 50 308 11.0 15.0 0.00 0.00 0.00 76 1023.2
20220118142517 49 296 11.0 15.0 0.00 0.00 0.00 76 1023.0
20220118141449 49 319 12.0 15.0 0.00 0.00 0.00 78 1022.9
20220118140428 48 309 12.0 15.0 0.00 0.00 0.00 78 1022.9
20220118135448 48 310 12.0 15.0 0.00 0.00 0.00 79 1022.7
20220118134417 48 298 12.0 16.0 0.00 0.00 0.00 80 1022.6
20220118133340 48 306 12.0 17.0 0.00 0.00 0.00 81 1022.4
20220118132401 48 311 13.0 17.0 0.00 0.00 0.00 81 1022.3
20220118131420 48 319 13.0 16.0 0.00 0.00 0.00 82 1022.1
20220118130420 48 317 13.0 15.0 0.00 0.00 0.00 82 1021.9
20220118125427 48 308 11.0 14.0 0.00 0.00 0.00 83 1021.9
20220118124409 48 299 10.0 13.0 0.00 0.00 0.00 83 1021.6
20220118123422 48 323 10.0 12.0 0.00 0.00 0.00 83 1021.1
20220118122404 48 325 10.0 14.0 0.00 0.00 0.00 82 1021.5
20220118121329 48 321 11.0 14.0 0.00 0.00 0.00 82 1021.1
20220118120314 49 329 11.0 15.0 0.00 0.00 0.00 82 1021.1
20220118115335 49 319 10.0 15.0 0.00 0.00 0.00 81 1021.0
20220118114334 49 317 12.0 15.0 0.00 0.00 0.00 81 1020.8
20220118113334 50 302 11.0 15.0 0.00 0.00 0.00 80 1020.7
20220118112320 50 312 11.0 14.0 0.00 0.00 0.00 80 1020.6
20220118111341 50 307 11.0 13.0 0.00 0.00 0.00 79 1020.4
20220118110357 51 313 11.0 13.0 0.00 0.00 0.00 79 1020.3
20220118105349 51 305 9.0 12.0 0.00 0.00 0.00 79 1020.3
20220118104407 51 311 6.0 12.0 0.00 0.00 0.00 79 1020.1
20220118103340 51 312 5.0 12.0 0.00 0.00 0.00 79 1020.2
20220118102310 51 345 3.0 8.0 0.00 0.00 0.00 78 1019.9
20220118101310 52 343 3.0 8.0 0.00 0.00 0.00 77 1019.6
20220118100251 52 355 3.0 10.0 0.00 0.00 0.00 76 1019.6
20220118095218 53 355 6.0 13.0 0.00 0.00 0.00 75 1019.4
20220118094201 53 325 8.0 13.0 0.00 0.00 0.00 75 1019.1
20220118093135 53 350 6.0 14.0 0.00 0.00 0.00 74 1019.0
20220118092128 54 346 8.0 23.0 0.00 0.00 0.00 73 1018.9
20220118091131 55 335 14.0 23.0 0.00 0.00 0.00 71 1018.8
20220118090144 55 323 13.0 21.0 0.00 0.00 0.00 70 1018.7
20220118085132 55 327 13.0 17.0 0.00 0.00 0.00 70 1018.4
20220118084112 55 315 13.0 17.0 0.00 0.00 0.00 70 1018.4
20220118083036 55 327 12.0 17.0 0.00 0.00 0.00 71 1018.5
20220118082038 54 321 12.0 17.0 0.00 0.00 0.00 74 1018.4
20220118081056 54 328 12.0 16.0 0.00 0.00 0.00 76 1018.4
20220118080039 54 314 11.0 16.0 0.00 0.00 0.00 77 1018.3
20220118075024 54 319 10.0 14.0 0.00 0.00 0.00 77 1018.3
20220118073955 54 322 11.0 15.0 0.00 0.00 0.00 77 1018.4
20220118072949 54 319 13.0 16.0 0.00 0.00 0.00 77 1018.4
20220118071933 54 310 14.0 18.0 0.00 0.00 0.00 78 1018.5
20220118070934 55 321 15.0 19.0 0.00 0.00 0.00 78 1018.5
20220118065912 55 307 14.0 18.0 0.00 0.00 0.00 78 1018.5
20220118064926 55 313 15.0 20.0 0.00 0.00 0.00 78 1018.5
20220118063908 55 304 15.0 20.0 0.00 0.00 0.00 78 1018.5
20220118062901 55 302 16.0 20.0 0.00 0.00 0.00 79 1018.6
20220118061849 55 302 15.0 19.0 0.00 0.00 0.00 81 1018.7
20220118060828 54 304 15.0 19.0 0.00 0.00 0.00 81 1018.7
20220118055805 54 300 15.0 19.0 0.00 0.00 0.00 81 1018.6
20220118054738 55 296 15.0 19.0 0.00 0.00 0.00 81 1018.6
20220118053723 55 300 15.0 19.0 0.00 0.00 0.00 80 1018.6
20220118052716 55 294 15.0 17.0 0.00 0.00 0.00 80 1018.5
20220118051702 55 300 14.0 16.0 0.00 0.00 0.00 80 1018.5
20220118050639 55 307 13.0 16.0 0.00 0.00 0.00 80 1018.6
20220118045617 55 310 13.0 16.0 0.00 0.00 0.00 79 1018.6
20220118044601 55 292 13.0 16.0 0.00 0.00 0.00 79 1018.8
20220118043535 56 294 13.0 16.0 0.00 0.00 0.00 79 1018.8
20220118042520 56 303 13.0 17.0 0.00 0.00 0.00 78 1018.8
20220118041529 56 298 13.0 17.0 0.00 0.00 0.00 78 1018.7
20220118040507 56 281 12.0 15.0 0.00 0.00 0.00 77 1018.7
20220118035507 56 289 13.0 16.0 0.00 0.00 0.00 77 1018.6
20220118034508 56 296 13.0 16.0 0.00 0.00 0.00 76 1018.5